| time (UTC) | temp F | wind direction | speed MPH | gust MPH | rain 1hr in | rain 24hr in | rain mn in | humidity % | barometer mb |
| 20260905154323 | 65 | 294 | 3.0 | 12.0 | 0.00 | 0.00 | 0.00 | 90 | 1008.9 |
| 20260905153814 | 65 | 349 | 3.0 | 12.0 | 0.00 | 0.00 | 0.00 | 90 | 1008.9 |
| 20260905153317 | 65 | 347 | 4.0 | 12.0 | 0.00 | 0.00 | 0.00 | 87 | 1008.9 |
| 20260905152855 | 66 | 360 | 4.0 | 12.0 | 0.00 | 0.00 | 0.00 | 86 | 1008.8 |
| 20260905152313 | 66 | 313 | 4.0 | 9.0 | 0.00 | 0.00 | 0.00 | 84 | 1008.8 |
| 20260905151820 | 67 | 304 | 4.0 | 7.0 | 0.00 | 0.00 | 0.00 | 84 | 1008.8 |
| 20260905151326 | 66 | 326 | 4.0 | 8.0 | 0.00 | 0.00 | 0.00 | 85 | 1008.8 |
| 20260905150831 | 66 | 355 | 4.0 | 8.0 | 0.00 | 0.00 | 0.00 | 85 | 1008.8 |
| 20260905150344 | 66 | 63 | 4.0 | 7.0 | 0.00 | 0.00 | 0.00 | 85 | 1008.8 |
| 20260905145824 | 66 | 310 | 3.0 | 9.0 | 0.00 | 0.00 | 0.00 | 87 | 1008.5 |
| 20260905145317 | 66 | 360 | 4.0 | 8.0 | 0.00 | 0.00 | 0.00 | 88 | 1008.5 |
| 20260905144825 | 66 | 300 | 3.0 | 8.0 | 0.00 | 0.00 | 0.00 | 87 | 1008.5 |
| 20260905144407 | 66 | 289 | 3.0 | 7.0 | 0.00 | 0.00 | 0.00 | 88 | 1008.6 |
| 20260905143847 | 65 | 331 | 3.0 | 6.0 | 0.00 | 0.00 | 0.00 | 90 | 1008.6 |
| 20260905143321 | 65 | 268 | 2.0 | 6.0 | 0.00 | 0.00 | 0.00 | 90 | 1008.6 |
| 20260905142830 | 65 | 5 | 2.0 | 6.0 | 0.00 | 0.00 | 0.00 | 89 | 1008.7 |
| 20260905142342 | 65 | 294 | 3.0 | 8.0 | 0.00 | 0.00 | 0.00 | 88 | 1008.7 |
| 20260905141824 | 65 | 312 | 4.0 | 11.0 | 0.00 | 0.00 | 0.00 | 87 | 1008.7 |
| 20260905141330 | 65 | 17 | 4.0 | 11.0 | 0.00 | 0.00 | 0.00 | 88 | 1008.7 |
| 20260905140817 | 65 | 316 | 3.0 | 8.0 | 0.00 | 0.00 | 0.00 | 88 | 1008.7 |
| 20260905140340 | 65 | 323 | 2.0 | 6.0 | 0.00 | 0.00 | 0.00 | 90 | 1008.7 |
| 20260905135829 | 64 | 314 | 2.0 | 5.0 | 0.00 | 0.00 | 0.00 | 91 | 1008.6 |
| 20260905135322 | 64 | 312 | 3.0 | 9.0 | 0.00 | 0.00 | 0.00 | 91 | 1008.6 |
| 20260905134838 | 64 | 347 | 3.0 | 9.0 | 0.00 | 0.00 | 0.00 | 93 | 1008.6 |
| 20260905134323 | 63 | 339 | 4.0 | 9.0 | 0.00 | 0.00 | 0.00 | 93 | 1008.7 |
| 20260905133815 | 63 | 355 | 3.0 | 6.0 | 0.00 | 0.00 | 0.00 | 95 | 1008.7 |
| 20260905133318 | 62 | 321 | 2.0 | 6.0 | 0.00 | 0.00 | 0.00 | 95 | 1008.7 |
| 20260905132837 | 62 | 346 | 2.0 | 5.0 | 0.00 | 0.00 | 0.00 | 96 | 1008.5 |
| 20260905132313 | 62 | 339 | 2.0 | 5.0 | 0.00 | 0.00 | 0.00 | 97 | 1008.5 |
| 20260905131822 | 61 | 29 | 2.0 | 5.0 | 0.00 | 0.00 | 0.00 | 97 | 1008.5 |
| 20260905131330 | 61 | 332 | 2.0 | 5.0 | 0.00 | 0.00 | 0.00 | 97 | 1008.5 |
| 20260905130842 | 61 | 333 | 1.0 | 4.0 | 0.00 | 0.00 | 0.00 | 98 | 1008.5 |
| 20260905130325 | 61 | 309 | 0.0 | 2.0 | 0.00 | 0.00 | 0.00 | 98 | 1008.5 |
| 20260905125816 | 61 | 309 | 0.0 | 2.0 | 0.00 | 0.00 | 0.00 | 98 | 1008.4 |
| 20260905125352 | 61 | 343 | 0.0 | 3.0 | 0.00 | 0.00 | 0.00 | 98 | 1008.4 |
| 20260905124844 | 61 | 343 | 0.0 | 3.0 | 0.00 | 0.00 | 0.00 | 98 | 1008.4 |
| 20260905124326 | 60 | 332 | 0.0 | 3.0 | 0.00 | 0.00 | 0.00 | 98 | 1008.4 |
| 20260905123829 | 60 | 332 | 0.0 | 3.0 | 0.00 | 0.00 | 0.00 | 98 | 1008.4 |
| 20260905123320 | 60 | 332 | 327.0 | 3.0 | 0.00 | 0.00 | 0.00 | 98 | 1008.4 |
| 20260905122836 | 60 | 332 | 327.0 | 0.0 | 0.00 | 0.00 | 0.00 | 98 | 1008.3 |
| 20260905122329 | 0 | 0.0 | 0.0 | 0.00 | 0.00 | 0.00 | 1008.3 | ||
| 20260905121832 | 0 | 0.0 | 0.0 | 0.00 | 0.00 | 0.00 | 1008.3 | ||
| 20260905121315 | 0 | 0.0 | 0.0 | 0.00 | 0.00 | 0.00 | 1008.1 | ||
| 20260905120315 | 0 | 0.0 | 0.0 | 0.00 | 0.00 | 0.00 | 1008.1 | ||
| 20260905115820 | 0 | 0.0 | 0.0 | 0.00 | 0.00 | 0.00 | 1007.9 | ||
| 20260905115323 | 0 | 0.0 | 0.0 | 0.00 | 0.00 | 0.00 | 1007.9 | ||
| 20260905114822 | 0 | 0.0 | 0.0 | 0.00 | 0.00 | 0.00 | 1007.9 | ||
| 20260905114338 | 0 | 0.0 | 0.0 | 0.00 | 0.00 | 0.00 | 1007.9 | ||
| 20260905113829 | 0 | 0.0 | 0.0 | 0.00 | 0.00 | 0.00 | 1007.9 | ||
| 20260905112840 | 0 | 0.0 | 0.0 | 0.00 | 0.00 | 0.00 | 1007.9 | ||
| 20260905112330 | 0 | 0.0 | 0.0 | 0.00 | 0.00 | 0.00 | 1007.9 | ||
| 20260905111813 | 0 | 0.0 | 0.0 | 0.00 | 0.00 | 0.00 | 1007.9 | ||
| 20260905111324 | 0 | 0.0 | 0.0 | 0.00 | 0.00 | 0.00 | 1007.6 | ||
| 20260905110848 | 0 | 0.0 | 0.0 | 0.00 | 0.00 | 0.00 | 1007.6 | ||
| 20260905110335 | 0 | 0.0 | 0.0 | 0.00 | 0.00 | 0.00 | 1007.6 | ||
| 20260905105831 | 0 | 0.0 | 0.0 | 0.00 | 0.00 | 0.00 | 1007.5 | ||
| 20260905105321 | 0 | 0.0 | 0.0 | 0.00 | 0.00 | 0.00 | 1007.5 | ||
| 20260905104824 | 0 | 0.0 | 0.0 | 0.00 | 0.00 | 0.00 | 1007.5 | ||
| 20260905103831 | 0 | 0.0 | 0.0 | 0.00 | 0.00 | 0.00 | 1007.4 | ||
| 20260905103336 | 0 | 0.0 | 0.0 | 0.00 | 0.00 | 0.00 | 1007.4 | ||
| 20260905102826 | 0 | 0.0 | 0.0 | 0.00 | 0.00 | 0.00 | 1007.3 | ||
| 20260905102324 | 0 | 0.0 | 0.0 | 0.00 | 0.00 | 0.00 | 1007.3 | ||
| 20260905101828 | 0 | 0.0 | 0.0 | 0.00 | 0.00 | 0.00 | 1007.3 | ||
| 20260905101316 | 0 | 0.0 | 0.0 | 0.00 | 0.00 | 0.00 | 1007.3 | ||
| 20260905100317 | 0 | 0.0 | 0.0 | 0.00 | 0.00 | 0.00 | 1007.3 | ||
| 20260905095821 | 0 | 0.0 | 0.0 | 0.00 | 0.00 | 0.00 | 1007.3 | ||
| 20260905095325 | 0 | 0.0 | 0.0 | 0.00 | 0.00 | 0.00 | 1007.3 | ||
| 20260905094833 | 0 | 0.0 | 0.0 | 0.00 | 0.00 | 0.00 | 1007.3 | ||
| 20260905094336 | 0 | 0.0 | 0.0 | 0.00 | 0.00 | 0.00 | 1007.2 | ||
| 20260905093841 | 0 | 0.0 | 0.0 | 0.00 | 0.00 | 0.00 | 1007.2 | ||
| 20260905093410 | 56 | 332 | 0.0 | 0.0 | 0.00 | 0.00 | 0.00 | 96 | 1007.2 |
| 20260905092838 | 56 | 332 | 0.0 | 0.0 | 0.00 | 0.00 | 0.00 | 96 | 1007.0 |
| 20260905092319 | 56 | 332 | 0.0 | 0.0 | 0.00 | 0.00 | 0.00 | 96 | 1007.0 |
| 20260905091850 | 56 | 332 | 0.0 | 0.0 | 0.00 | 0.00 | 0.00 | 96 | 1007.0 |
| 20260905091315 | 56 | 332 | 0.0 | 0.0 | 0.00 | 0.00 | 0.00 | 96 | 1007.1 |
| 20260905090812 | 56 | 332 | 0.0 | 0.0 | 0.00 | 0.00 | 0.00 | 96 | 1007.1 |
| 20260905090326 | 56 | 332 | 0.0 | 0.0 | 0.00 | 0.00 | 0.00 | 96 | 1007.1 |
| 20260905085827 | 57 | 332 | 0.0 | 0.0 | 0.00 | 0.00 | 0.00 | 96 | 1006.9 |
| 20260905085334 | 57 | 332 | 0.0 | 0.0 | 0.00 | 0.00 | 0.00 | 96 | 1006.9 |
| 20260905084839 | 57 | 332 | 0.0 | 0.0 | 0.00 | 0.00 | 0.00 | 96 | 1006.9 |
| 20260905084345 | 57 | 332 | 0.0 | 0.0 | 0.00 | 0.00 | 0.00 | 96 | 1006.9 |
| 20260905083837 | 57 | 332 | 0.0 | 0.0 | 0.00 | 0.00 | 0.00 | 96 | 1006.9 |
| 20260905083328 | 57 | 332 | 0.0 | 0.0 | 0.00 | 0.00 | 0.00 | 96 | 1006.9 |
| 20260905082843 | 57 | 332 | 0.0 | 0.0 | 0.00 | 0.00 | 0.00 | 96 | 1006.9 |
| 20260905082336 | 57 | 332 | 0.0 | 0.0 | 0.00 | 0.00 | 0.00 | 96 | 1006.9 |
| 20260905081819 | 57 | 332 | 0.0 | 0.0 | 0.00 | 0.00 | 0.00 | 96 | 1006.9 |
| 20260905081324 | 57 | 332 | 0.0 | 0.0 | 0.00 | 0.00 | 0.00 | 96 | 1006.9 |
| 20260905080827 | 57 | 332 | 0.0 | 0.0 | 0.00 | 0.00 | 0.00 | 96 | 1006.9 |
| 20260905080334 | 57 | 332 | 0.0 | 0.0 | 0.00 | 0.00 | 0.00 | 96 | 1006.9 |
| 20260905075836 | 57 | 332 | 0.0 | 0.0 | 0.00 | 0.00 | 0.00 | 96 | 1006.9 |
| 20260905075323 | 57 | 332 | 0.0 | 0.0 | 0.00 | 0.00 | 0.00 | 96 | 1006.9 |
| 20260905074828 | 57 | 332 | 0.0 | 0.0 | 0.00 | 0.00 | 0.00 | 96 | 1006.9 |
| 20260905074314 | 57 | 332 | 0.0 | 0.0 | 0.00 | 0.00 | 0.00 | 95 | 1007.0 |
| 20260905073821 | 57 | 332 | 0.0 | 0.0 | 0.00 | 0.00 | 0.00 | 95 | 1007.0 |
| 20260905073334 | 57 | 332 | 0.0 | 0.0 | 0.00 | 0.00 | 0.00 | 95 | 1007.0 |
| 20260905072826 | 58 | 332 | 0.0 | 0.0 | 0.00 | 0.00 | 0.00 | 95 | 1007.0 |
| 20260905072316 | 58 | 332 | 0.0 | 0.0 | 0.00 | 0.00 | 0.00 | 95 | 1007.0 |
| 20260905071825 | 58 | 332 | 0.0 | 0.0 | 0.00 | 0.00 | 0.00 | 95 | 1007.0 |
| 20260905071315 | 58 | 332 | 0.0 | 0.0 | 0.00 | 0.00 | 0.00 | 96 | 1007.3 |
| 20260905070845 | 58 | 332 | 0.0 | 0.0 | 0.00 | 0.00 | 0.00 | 96 | 1007.3 |
| 20260905070350 | 58 | 332 | 0.0 | 0.0 | 0.00 | 0.00 | 0.00 | 96 | 1007.3 |
| 20260905065813 | 58 | 332 | 0.0 | 0.0 | 0.00 | 0.00 | 0.00 | 96 | 1007.4 |
| 20260905065338 | 58 | 332 | 0.0 | 0.0 | 0.00 | 0.00 | 0.00 | 96 | 1007.4 |
| 20260905064812 | 58 | 332 | 0.0 | 0.0 | 0.00 | 0.00 | 0.00 | 95 | 1007.4 |
| 20260905064316 | 58 | 332 | 0.0 | 0.0 | 0.00 | 0.00 | 0.00 | 96 | 1007.4 |
| 20260905063818 | 58 | 332 | 0.0 | 0.0 | 0.00 | 0.00 | 0.00 | 96 | 1007.4 |
| 20260905063322 | 58 | 332 | 0.0 | 0.0 | 0.00 | 0.00 | 0.00 | 96 | 1007.4 |
| 20260905062829 | 58 | 332 | 0.0 | 0.0 | 0.00 | 0.00 | 0.00 | 95 | 1007.4 |
| 20260905062321 | 58 | 332 | 0.0 | 0.0 | 0.00 | 0.00 | 0.00 | 95 | 1007.4 |
| 20260905061826 | 59 | 332 | 0.0 | 0.0 | 0.00 | 0.00 | 0.00 | 95 | 1007.4 |
| 20260905061313 | 58 | 332 | 0.0 | 0.0 | 0.00 | 0.00 | 0.00 | 95 | 1007.5 |
| 20260905060816 | 59 | 332 | 0.0 | 0.0 | 0.00 | 0.00 | 0.00 | 95 | 1007.5 |
| 20260905060341 | 59 | 332 | 0.0 | 0.0 | 0.00 | 0.00 | 0.00 | 95 | 1007.5 |
| 20260905055846 | 59 | 332 | 0.0 | 0.0 | 0.00 | 0.00 | 0.00 | 94 | 1007.5 |
| 20260905055332 | 59 | 332 | 0.0 | 0.0 | 0.00 | 0.00 | 0.00 | 94 | 1007.5 |
| 20260905054837 | 59 | 332 | 0.0 | 0.0 | 0.00 | 0.00 | 0.00 | 94 | 1007.5 |
| 20260905054317 | 59 | 332 | 0.0 | 0.0 | 0.00 | 0.00 | 0.00 | 94 | 1007.4 |
| 20260905053824 | 59 | 332 | 0.0 | 0.0 | 0.00 | 0.00 | 0.00 | 94 | 1007.4 |
| 20260905053315 | 59 | 332 | 0.0 | 0.0 | 0.00 | 0.00 | 0.00 | 94 | 1007.4 |
| 20260905052825 | 60 | 332 | 0.0 | 0.0 | 0.00 | 0.00 | 0.00 | 93 | 1007.4 |
| 20260905052332 | 60 | 332 | 0.0 | 0.0 | 0.00 | 0.00 | 0.00 | 94 | 1007.4 |
| 20260905051821 | 60 | 332 | 0.0 | 0.0 | 0.00 | 0.00 | 0.00 | 94 | 1007.4 |
| 20260905051350 | 60 | 332 | 0.0 | 0.0 | 0.00 | 0.00 | 0.00 | 94 | 1007.5 |
| 20260905050817 | 60 | 332 | 0.0 | 0.0 | 0.00 | 0.00 | 0.00 | 94 | 1007.5 |
| 20260905050318 | 60 | 332 | 0.0 | 0.0 | 0.00 | 0.00 | 0.00 | 94 | 1007.5 |
| 20260905045825 | 60 | 332 | 0.0 | 0.0 | 0.00 | 0.00 | 0.00 | 93 | 1007.5 |
| 20260905045405 | 60 | 332 | 0.0 | 0.0 | 0.00 | 0.00 | 0.00 | 93 | 1007.5 |
| 20260905044815 | 61 | 332 | 0.0 | 0.0 | 0.00 | 0.00 | 0.00 | 93 | 1007.5 |
| 20260905044326 | 61 | 332 | 0.0 | 0.0 | 0.00 | 0.00 | 0.00 | 92 | 1007.8 |
| 20260905043832 | 61 | 332 | 0.0 | 0.0 | 0.00 | 0.00 | 0.00 | 93 | 1007.8 |
| 20260905043331 | 61 | 332 | 0.0 | 1.0 | 0.00 | 0.00 | 0.00 | 92 | 1007.8 |
| 20260905042837 | 61 | 332 | 0.0 | 1.0 | 0.00 | 0.00 | 0.00 | 92 | 1007.9 |
| 20260905042328 | 61 | 332 | 0.0 | 1.0 | 0.00 | 0.00 | 0.00 | 92 | 1007.9 |
| 20260905041831 | 62 | 332 | 0.0 | 2.0 | 0.00 | 0.00 | 0.00 | 91 | 1007.9 |
| 20260905041315 | 62 | 332 | 0.0 | 2.0 | 0.00 | 0.00 | 0.00 | 90 | 1007.8 |
| 20260905040819 | 62 | 332 | 0.0 | 2.0 | 0.00 | 0.00 | 0.00 | 90 | 1007.8 |
| 20260905040315 | 63 | 332 | 0.0 | 2.0 | 0.00 | 0.00 | 0.00 | 90 | 1007.8 |
| 20260905035822 | 63 | 332 | 0.0 | 1.0 | 0.00 | 0.00 | 0.00 | 90 | 1007.8 |
| 20260905035332 | 63 | 332 | 0.0 | 1.0 | 0.00 | 0.00 | 0.00 | 90 | 1007.8 |
| 20260905034822 | 63 | 332 | 0.0 | 0.0 | 0.00 | 0.00 | 0.00 | 89 | 1007.8 |
| 20260905034350 | 63 | 332 | 0.0 | 0.0 | 0.00 | 0.00 | 0.00 | 89 | 1007.6 |
| 20260905033837 | 63 | 332 | 0.0 | 0.0 | 0.00 | 0.00 | 0.00 | 89 | 1007.6 |
| 20260905033323 | 63 | 332 | 0.0 | 0.0 | 0.00 | 0.00 | 0.00 | 89 | 1007.6 |
| 20260905032832 | 64 | 332 | 0.0 | 1.0 | 0.00 | 0.00 | 0.00 | 89 | 1007.5 |
| 20260905032320 | 64 | 332 | 0.0 | 2.0 | 0.00 | 0.00 | 0.00 | 89 | 1007.5 |
| 20260905031824 | 64 | 332 | 0.0 | 2.0 | 0.00 | 0.00 | 0.00 | 89 | 1007.5 |
| 20260905031328 | 64 | 332 | 0.0 | 0.0 | 0.00 | 0.00 | 0.00 | 89 | 1007.6 |
| 20260905030832 | 64 | 332 | 0.0 | 0.0 | 0.00 | 0.00 | 0.00 | 89 | 1007.6 |
| 20260905030342 | 64 | 332 | 0.0 | 0.0 | 0.00 | 0.00 | 0.00 | 89 | 1007.6 |
| 20260905025849 | 64 | 332 | 0.0 | 0.0 | 0.00 | 0.00 | 0.00 | 89 | 1007.8 |
| 20260905025331 | 64 | 332 | 0.0 | 0.0 | 0.00 | 0.00 | 0.00 | 89 | 1007.8 |
| 20260905024839 | 64 | 332 | 0.0 | 0.0 | 0.00 | 0.00 | 0.00 | 89 | 1007.8 |
| 20260905024323 | 64 | 332 | 0.0 | 0.0 | 0.00 | 0.00 | 0.00 | 89 | 1007.8 |
| 20260905023847 | 64 | 332 | 0.0 | 1.0 | 0.00 | 0.00 | 0.00 | 89 | 1007.8 |
| 20260905023328 | 65 | 332 | 0.0 | 2.0 | 0.00 | 0.00 | 0.00 | 89 | 1007.8 |
| 20260905022816 | 64 | 332 | 0.0 | 2.0 | 0.00 | 0.00 | 0.00 | 89 | 1007.8 |
| 20260905022346 | 65 | 332 | 0.0 | 0.0 | 0.00 | 0.00 | 0.00 | 89 | 1007.8 |
| 20260905021832 | 65 | 332 | 0.0 | 0.0 | 0.00 | 0.00 | 0.00 | 89 | 1007.8 |
| 20260905021317 | 65 | 332 | 0.0 | 0.0 | 0.00 | 0.00 | 0.00 | 89 | 1007.9 |
| 20260905020821 | 65 | 332 | 0.0 | 0.0 | 0.00 | 0.00 | 0.00 | 89 | 1007.9 |
| 20260905020325 | 65 | 332 | 0.0 | 2.0 | 0.00 | 0.00 | 0.00 | 89 | 1007.9 |
| 20260905015828 | 65 | 332 | 0.0 | 2.0 | 0.00 | 0.00 | 0.00 | 89 | 1007.9 |
| 20260905015336 | 65 | 332 | 0.0 | 0.0 | 0.00 | 0.00 | 0.00 | 88 | 1007.9 |
| 20260905014826 | 65 | 332 | 0.0 | 0.0 | 0.00 | 0.00 | 0.00 | 88 | 1007.9 |
| 20260905014329 | 65 | 332 | 0.0 | 0.0 | 0.00 | 0.00 | 0.00 | 88 | 1007.9 |
| 20260905013834 | 65 | 332 | 0.0 | 0.0 | 0.00 | 0.00 | 0.00 | 88 | 1007.9 |
| 20260905013331 | 65 | 332 | 0.0 | 0.0 | 0.00 | 0.00 | 0.00 | 88 | 1007.9 |
| 20260905012839 | 65 | 332 | 0.0 | 0.0 | 0.00 | 0.00 | 0.00 | 88 | 1008.0 |
| 20260905012322 | 65 | 332 | 0.0 | 5.0 | 0.00 | 0.00 | 0.00 | 88 | 1008.0 |
| 20260905011838 | 65 | 332 | 0.0 | 5.0 | 0.00 | 0.00 | 0.00 | 88 | 1008.0 |
| 20260905011344 | 65 | 332 | 0.0 | 5.0 | 0.00 | 0.00 | 0.00 | 87 | 1007.9 |
| 20260905010835 | 65 | 332 | 1.0 | 5.0 | 0.00 | 0.00 | 0.00 | 87 | 1007.9 |
| 20260905010328 | 65 | 332 | 1.0 | 7.0 | 0.00 | 0.00 | 0.00 | 87 | 1007.9 |
| 20260905005815 | 65 | 360 | 1.0 | 7.0 | 0.00 | 0.00 | 0.00 | 86 | 1007.8 |
| 20260905005321 | 65 | 355 | 0.0 | 3.0 | 0.00 | 0.00 | 0.00 | 87 | 1007.8 |
| 20260905004847 | 66 | 47 | 0.0 | 0.0 | 0.00 | 0.00 | 0.00 | 87 | 1007.8 |
| 20260905004331 | 66 | 47 | 0.0 | 0.0 | 0.00 | 0.00 | 0.00 | 86 | 1007.7 |
| 20260905003836 | 66 | 47 | 0.0 | 1.0 | 0.00 | 0.00 | 0.00 | 86 | 1007.7 |
| 20260905003317 | 66 | 47 | 0.0 | 1.0 | 0.00 | 0.00 | 0.00 | 85 | 1007.7 |
| 20260905002856 | 66 | 47 | 0.0 | 0.0 | 0.00 | 0.00 | 0.00 | 85 | 1007.5 |
| 20260905002327 | 66 | 47 | 0.0 | 0.0 | 0.00 | 0.00 | 0.00 | 83 | 1007.5 |
| 20260905001831 | 66 | 47 | 0.0 | 0.0 | 0.00 | 0.00 | 0.00 | 83 | 1007.5 |
| 20260905001315 | 67 | 47 | 0.0 | 2.0 | 0.00 | 0.00 | 0.00 | 83 | 1007.5 |
| 20260905000827 | 67 | 47 | 1.0 | 2.0 | 0.00 | 0.00 | 0.00 | 82 | 1007.5 |
| 20260905000313 | 67 | 47 | 1.0 | 2.0 | 0.00 | 0.00 | 0.00 | 83 | 1007.5 |
| 20260904235819 | 67 | 113 | 0.0 | 2.0 | 0.00 | 0.00 | 0.00 | 84 | 1007.4 |
| 20260904235345 | 67 | 113 | 0.0 | 1.0 | 0.00 | 0.00 | 0.00 | 83 | 1007.4 |
| 20260904234831 | 67 | 113 | 0.0 | 1.0 | 0.00 | 0.00 | 0.00 | 82 | 1007.4 |
| 20260904234316 | 68 | 113 | 0.0 | 1.0 | 0.00 | 0.00 | 0.00 | 83 | 1007.1 |
| 20260904233820 | 68 | 113 | 0.0 | 1.0 | 0.00 | 0.00 | 0.00 | 81 | 1007.1 |
| 20260904233346 | 68 | 113 | 0.0 | 1.0 | 0.00 | 0.00 | 0.00 | 81 | 1007.1 |
| 20260904232828 | 68 | 113 | 0.0 | 0.0 | 0.00 | 0.00 | 0.00 | 81 | 1007.2 |
| 20260904232335 | 69 | 113 | 0.0 | 1.0 | 0.00 | 0.00 | 0.00 | 80 | 1007.2 |
| 20260904231812 | 69 | 113 | 0.0 | 2.0 | 0.00 | 0.00 | 0.00 | 79 | 1007.2 |
| 20260904231332 | 69 | 113 | 1.0 | 2.0 | 0.00 | 0.00 | 0.00 | 78 | 1007.0 |
| 20260904230825 | 69 | 113 | 1.0 | 2.0 | 0.00 | 0.00 | 0.00 | 79 | 1007.0 |
| 20260904230318 | 69 | 56 | 1.0 | 2.0 | 0.00 | 0.00 | 0.00 | 79 | 1007.0 |
| 20260904225824 | 69 | 56 | 1.0 | 2.0 | 0.00 | 0.00 | 0.00 | 79 | 1007.0 |
| 20260904225325 | 70 | 269 | 0.0 | 2.0 | 0.00 | 0.00 | 0.00 | 79 | 1007.0 |
| 20260904224849 | 70 | 269 | 0.0 | 1.0 | 0.00 | 0.00 | 0.00 | 79 | 1007.0 |
| 20260904224333 | 70 | 269 | 0.0 | 2.0 | 0.00 | 0.00 | 0.00 | 80 | 1006.9 |
| 20260904223848 | 70 | 269 | 0.0 | 2.0 | 0.00 | 0.00 | 0.00 | 79 | 1006.9 |
| 20260904223335 | 70 | 87 | 0.0 | 3.0 | 0.00 | 0.00 | 0.00 | 78 | 1006.9 |
| 20260904222820 | 70 | 336 | 1.0 | 3.0 | 0.00 | 0.00 | 0.00 | 77 | 1006.9 |
| 20260904222324 | 71 | 46 | 1.0 | 3.0 | 0.00 | 0.00 | 0.00 | 78 | 1006.9 |
| 20260904221818 | 71 | 111 | 0.0 | 1.0 | 0.00 | 0.00 | 0.00 | 79 | 1006.9 |
| 20260904221325 | 71 | 111 | 1.0 | 4.0 | 0.00 | 0.00 | 0.00 | 78 | 1006.9 |
| 20260904220829 | 72 | 111 | 1.0 | 3.0 | 0.00 | 0.00 | 0.00 | 77 | 1006.9 |
| 20260904220320 | 72 | 44 | 1.0 | 4.0 | 0.00 | 0.00 | 0.00 | 76 | 1006.9 |
| 20260904215836 | 72 | 24 | 1.0 | 4.0 | 0.00 | 0.00 | 0.00 | 74 | 1006.9 |
| 20260904215326 | 72 | 15 | 1.0 | 3.0 | 0.00 | 0.00 | 0.00 | 73 | 1006.9 |
| 20260904214830 | 73 | 28 | 1.0 | 3.0 | 0.00 | 0.00 | 0.00 | 75 | 1006.9 |
| 20260904214338 | 73 | 14 | 1.0 | 3.0 | 0.00 | 0.00 | 0.00 | 76 | 1006.8 |
| 20260904213821 | 73 | 67 | 1.0 | 3.0 | 0.00 | 0.00 | 0.00 | 71 | 1006.8 |
| 20260904213348 | 74 | 336 | 1.0 | 8.0 | 0.00 | 0.00 | 0.00 | 75 | 1006.8 |
| 20260904212813 | 74 | 343 | 1.0 | 8.0 | 0.00 | 0.00 | 0.00 | 75 | 1007.0 |
| 20260904212312 | 74 | 343 | 2.0 | 8.0 | 0.00 | 0.00 | 0.00 | 74 | 1007.0 |
| 20260904211816 | 75 | 13 | 2.0 | 5.0 | 0.00 | 0.00 | 0.00 | 75 | 1007.0 |
| 20260904211323 | 75 | 11 | 1.0 | 5.0 | 0.00 | 0.00 | 0.00 | 74 | 1007.1 |
| 20260904210813 | 75 | 313 | 1.0 | 3.0 | 0.00 | 0.00 | 0.00 | 72 | 1007.1 |
| 20260904210347 | 75 | 313 | 1.0 | 4.0 | 0.00 | 0.00 | 0.00 | 71 | 1007.1 |
| 20260904205812 | 75 | 63 | 2.0 | 7.0 | 0.00 | 0.00 | 0.00 | 72 | 1007.0 |
| 20260904205312 | 75 | 331 | 3.0 | 6.0 | 0.00 | 0.00 | 0.00 | 68 | 1007.0 |
| 20260904204816 | 75 | 355 | 2.0 | 6.0 | 0.00 | 0.00 | 0.00 | 73 | 1007.0 |
| 20260904204327 | 75 | 344 | 2.0 | 6.0 | 0.00 | 0.00 | 0.00 | 71 | 1006.9 |
| 20260904203832 | 74 | 334 | 2.0 | 6.0 | 0.00 | 0.00 | 0.00 | 68 | 1006.9 |
| 20260904203338 | 74 | 327 | 2.0 | 6.0 | 0.00 | 0.00 | 0.00 | 71 | 1006.9 |
| 20260904202834 | 75 | 344 | 4.0 | 8.0 | 0.00 | 0.00 | 0.00 | 69 | 1006.9 |
| 20260904202314 | 75 | 291 | 4.0 | 8.0 | 0.00 | 0.00 | 0.00 | 69 | 1006.9 |
| 20260904201827 | 75 | 302 | 4.0 | 8.0 | 0.00 | 0.00 | 0.00 | 67 | 1006.9 |
| 20260904201332 | 76 | 355 | 3.0 | 8.0 | 0.00 | 0.00 | 0.00 | 64 | 1006.9 |
| 20260904200827 | 76 | 348 | 2.0 | 10.0 | 0.00 | 0.00 | 0.00 | 66 | 1006.9 |
| 20260904200332 | 76 | 336 | 2.0 | 10.0 | 0.00 | 0.00 | 0.00 | 65 | 1006.9 |
| 20260904195822 | 76 | 11 | 3.0 | 10.0 | 0.00 | 0.00 | 0.00 | 70 | 1006.9 |
| 20260904195327 | 76 | 22 | 3.0 | 5.0 | 0.00 | 0.00 | 0.00 | 69 | 1006.9 |
| 20260904194825 | 75 | 15 | 2.0 | 4.0 | 0.00 | 0.00 | 0.00 | 67 | 1006.9 |
| 20260904194352 | 75 | 9 | 2.0 | 9.0 | 0.00 | 0.00 | 0.00 | 67 | 1007.0 |
| 20260904193828 | 76 | 25 | 3.0 | 9.0 | 0.00 | 0.00 | 0.00 | 63 | 1007.0 |
| 20260904193319 | 76 | 317 | 3.0 | 9.0 | 0.00 | 0.00 | 0.00 | 66 | 1007.0 |
| 20260904192828 | 76 | 38 | 3.0 | 7.0 | 0.00 | 0.00 | 0.00 | 65 | 1007.3 |
| 20260904192340 | 76 | 329 | 3.0 | 7.0 | 0.00 | 0.00 | 0.00 | 63 | 1007.3 |
| 20260904191839 | 77 | 299 | 3.0 | 9.0 | 0.00 | 0.00 | 0.00 | 65 | 1007.3 |
| 20260904191327 | 77 | 351 | 3.0 | 9.0 | 0.00 | 0.00 | 0.00 | 63 | 1007.2 |
| 20260904190826 | 77 | 261 | 2.0 | 6.0 | 0.00 | 0.00 | 0.00 | 64 | 1007.2 |
| 20260904190318 | 77 | 298 | 2.0 | 6.0 | 0.00 | 0.00 | 0.00 | 62 | 1007.2 |
| 20260904185822 | 78 | 19 | 3.0 | 8.0 | 0.00 | 0.00 | 0.00 | 62 | 1007.4 |
| 20260904185336 | 79 | 351 | 2.0 | 8.0 | 0.00 | 0.00 | 0.00 | 63 | 1007.4 |
| 20260904184815 | 79 | 340 | 4.0 | 8.0 | 0.00 | 0.00 | 0.00 | 59 | 1007.4 |
| 20260904184321 | 80 | 313 | 3.0 | 8.0 | 0.00 | 0.00 | 0.00 | 60 | 1007.4 |
| 20260904183819 | 80 | 300 | 3.0 | 8.0 | 0.00 | 0.00 | 0.00 | 61 | 1007.4 |
| 20260904183320 | 80 | 360 | 2.0 | 5.0 | 0.00 | 0.00 | 0.00 | 60 | 1007.4 |
| 20260904182841 | 80 | 355 | 2.0 | 5.0 | 0.00 | 0.00 | 0.00 | 60 | 1007.4 |
| 20260904182321 | 80 | 28 | 2.0 | 5.0 | 0.00 | 0.00 | 0.00 | 59 | 1007.4 |
| 20260904181826 | 80 | 75 | 2.0 | 5.0 | 0.00 | 0.00 | 0.00 | 65 | 1007.4 |
| 20260904181333 | 79 | 351 | 3.0 | 0.0 | 0.00 | 0.00 | 0.00 | 64 | 1007.2 |
| 20260904180813 | 79 | 319 | 3.0 | 6.0 | 0.00 | 0.00 | 0.00 | 61 | 1007.4 |
| 20260904180322 | 79 | 288 | 2.0 | 5.0 | 0.00 | 0.00 | 0.00 | 60 | 1007.4 |
| 20260904175818 | 79 | 331 | 2.0 | 5.0 | 0.00 | 0.00 | 0.00 | 61 | 1007.4 |
| 20260904175319 | 79 | 350 | 2.0 | 4.0 | 0.00 | 0.00 | 0.00 | 59 | 1007.4 |
| 20260904174828 | 79 | 278 | 1.0 | 6.0 | 0.00 | 0.00 | 0.00 | 62 | 1007.4 |
| 20260904174336 | 80 | 148 | 3.0 | 6.0 | 0.00 | 0.00 | 0.00 | 63 | 1007.4 |
| 20260904173824 | 79 | 339 | 2.0 | 6.0 | 0.00 | 0.00 | 0.00 | 68 | 1007.4 |
| 20260904173335 | 78 | 180 | 1.0 | 7.0 | 0.00 | 0.00 | 0.00 | 67 | 1007.4 |
| 20260904172825 | 77 | 348 | 2.0 | 7.0 | 0.00 | 0.00 | 0.00 | 64 | 1007.4 |
| 20260904172325 | 77 | 32 | 3.0 | 6.0 | 0.00 | 0.00 | 0.00 | 68 | 1007.4 |
| 20260904171813 | 78 | 10 | 3.0 | 6.0 | 0.00 | 0.00 | 0.00 | 64 | 1007.4 |
| 20260904171322 | 78 | 355 | 3.0 | 6.0 | 0.00 | 0.00 | 0.00 | 62 | 1007.4 |
| 20260904170831 | 79 | 325 | 3.0 | 6.0 | 0.00 | 0.00 | 0.00 | 64 | 1007.4 |
| 20260904170311 | 79 | 52 | 3.0 | 8.0 | 0.00 | 0.00 | 0.00 | 59 | 1007.4 |
| 20260904165826 | 80 | 321 | 2.0 | 8.0 | 0.00 | 0.00 | 0.00 | 63 | 1007.7 |
| 20260904165331 | 80 | 120 | 3.0 | 8.0 | 0.00 | 0.00 | 0.00 | 63 | 1007.7 |
| 20260904164836 | 79 | 43 | 2.0 | 6.0 | 0.00 | 0.00 | 0.00 | 66 | 1007.7 |
| 20260904164352 | 79 | 226 | 2.0 | 6.0 | 0.00 | 0.00 | 0.00 | 63 | 1007.8 |
| 20260904163840 | 79 | 355 | 2.0 | 8.0 | 0.00 | 0.00 | 0.00 | 67 | 1007.8 |
| 20260904163329 | 78 | 205 | 3.0 | 7.0 | 0.00 | 0.00 | 0.00 | 67 | 1007.8 |
| 20260904162826 | 78 | 360 | 2.0 | 6.0 | 0.00 | 0.00 | 0.00 | 69 | 1008.0 |
| 20260904162335 | 77 | 233 | 3.0 | 5.0 | 0.00 | 0.00 | 0.00 | 67 | 1008.0 |
| 20260904161827 | 77 | 313 | 1.0 | 6.0 | 0.00 | 0.00 | 0.00 | 71 | 1008.0 |
| 20260904161315 | 76 | 355 | 2.0 | 6.0 | 0.00 | 0.00 | 0.00 | 69 | 1008.3 |
| 20260904160826 | 75 | 360 | 2.0 | 5.0 | 0.00 | 0.00 | 0.00 | 70 | 1008.3 |
| 20260904160338 | 75 | 275 | 2.0 | 7.0 | 0.00 | 0.00 | 0.00 | 70 | 1008.3 |
| 20260904155829 | 76 | 11 | 3.0 | 7.0 | 0.00 | 0.00 | 0.00 | 68 | 1008.4 |
| 20260904155329 | 77 | 355 | 4.0 | 7.0 | 0.00 | 0.00 | 0.00 | 65 | 1008.4 |
| 20260904154816 | 78 | 340 | 3.0 | 7.0 | 0.00 | 0.00 | 0.00 | 68 | 1008.4 |